Tracking 21992 objects as of 27-Nov-2020
HD Live streaming from Space Station
objects crossing your sky now

OKEAN O

Track OKEAN O now!
10-day predictions
OKEAN O is classified as:


NORAD ID: 25860
Int'l Code: 1999-039A
Perigee: 645.6 km
Apogee: 648.2 km
Inclination: 98.2 °
Period: 97.5 minutes
Semi major axis: 7017 km
RCS: 19.8052 m2 (large)
Launch date: July 17, 1999
Source: Commonwealth of Independent States (former USSR) (CIS)
Launch site: TYURATAM MISSILE AND SPACE COMPLEX (TTMTR)
aabbcc
Your satellite tracking list
Your tracking list is empty




NASA's NSSDC Master Catalog

Two Line Element Set (TLE):
1 25860U 99039A   20331.93287010 +.00000110 +00000-0 +23301-4 0  9995
2 25860 098.2037 353.6770 0001846 085.5719 274.5701 14.76692810149494
Source of the keplerian elements: AFSPC